Overview Statistics Trail Chart Weather Telemetry Raw packets
 

This is the latest recevied weather packets stored in our database for station/object KA1BMF-13. If no packets are shown the sender has not sent any weather packets the latest 10 day(s).

<< 42 43 44 45 46 47 48 >>
Time Temp. Humidity Pressure Rain* Wind** Luminosity Snow
1787868916 23.33° C 82% 1014.9 hPa 0 mm - 62 W/m² -
1787868320 23.33° C 81% 1015 hPa 0 mm - 72 W/m² -
1787867720 23.89° C 81% 1015.1 hPa 0 mm - 71 W/m² -
1787867117 23.89° C 80% 1015.3 hPa 0 mm - 91 W/m² -
1787866517 23.89° C 79% 1015.5 hPa 0 mm - 143 W/m² -
1787865918 23.89° C 79% 1015.8 hPa 0 mm - 140 W/m² -
1787865317 23.89° C 79% 1016.1 hPa 0 mm - 142 W/m² -
1787864718 23.89° C 79% 1016.2 hPa 0 mm - 135 W/m² -
1787864118 23.89° C 79% 1016.3 hPa 0 mm - 151 W/m² -
1787863518 23.89° C 80% 1016.3 hPa 0 mm - 156 W/m² -
1787862918 23.89° C 80% 1016.4 hPa 0 mm - 187 W/m² -
1787862319 23.89° C 80% 1016.4 hPa 0 mm - 167 W/m² -
1787861716 23.89° C 81% 1016.4 hPa 0 mm - 223 W/m² -
1787861123 23.89° C 82% 1016.3 hPa 0 mm - 192 W/m² -
1787860519 24.44° C 81% 1016.3 hPa 0 mm - 162 W/m² -
1787859926 24.44° C 80% 1016.4 hPa 0 mm - 171 W/m² -
1787859317 24.44° C 79% 1016.5 hPa 0 mm - 197 W/m² -
1787858724 24.44° C 78% 1016.6 hPa 0 mm - 237 W/m² -
1787858117 24.44° C 77% 1016.6 hPa 0 mm - 168 W/m² -
1787857520 24.44° C 76% 1016.7 hPa 0 mm - 162 W/m² -
1787856917 24.44° C 77% 1016.6 hPa 0 mm - 111 W/m² -
1787856317 24.44° C 76% 1016.6 hPa 0 mm - 104 W/m² -
1787855717 24.44° C 75% 1016.4 hPa 0 mm - 130 W/m² -
1787855117 24.44° C 73% 1016.5 hPa 0 mm - 162 W/m² -
1787854518 25° C 73% 1016.6 hPa 0 mm - 182 W/m² -

* Rain latest hour (hover to see other rain measurements)
** Current wind speed in m/s (hover to see current wind gust speed)